{"data":{"norad_id":67552,"intl_designator":"2026-014W","name":"STARLINK-36567","alt_names":[],"object_type":"PAYLOAD","status":"ACTIVE","operator":null,"country":"US","launch_date":"2026-01-22","launch_site_code":"AFWTR","launch_vehicle":null,"mission":null,"orbit_class":"UNKNOWN","rcs_meters":null,"size_class":null,"mass_kg":null,"dimensions":null,"purposes":["comms"],"wikipedia_slug":null,"has_3d_model":false,"image_url":null,"decayed_at":null,"tle_current":{"epoch":"2026-05-25T03:23:20.169888Z","epoch_age_seconds":66152,"freshness":"FRESH","line1":"1 67552U 26014W   26145.14120567  .00013670  00000+0  42488-3 0  9997","line2":"2 67552  97.2861  32.2429 0001516  93.5618 266.5798 15.33451948 20498","mean_motion":15.33451948,"eccentricity":0.0001516,"inclination_deg":97.2861,"raan_deg":32.2429,"arg_perigee_deg":93.5618,"mean_anomaly_deg":266.5798,"bstar":0.00042488,"rev_number":2049,"period_min":93.905779172156,"perigee_km":464.48500341599,"apogee_km":466.56000097705,"semimajor_km":6843.6595021965,"source":"CELESTRAK","updated_at":"2026-05-25T13:38:21.611208Z"}}}